Regional Weather Roundup
Issued by NWS

Home | Current Version | Previous Version | Graphics & Text | Print | Product List | Glossary On
Versions: 1 2 3 4 5 6 7 8 9 10 11 12 13 14 15 16 17 18 19 20 21 22 23 24 25 26 27
000
ASUS45 KBOU 222207
RWRCO

WEATHER ROUNDUP FOR COLORADO
NATIONAL WEATHER SERVICE DENVER/BOULDER CO
400 PM MDT SAT JUL 22 2017

NOTE: "FAIR" INDICATES FEW OR NO CLOUDS BELOW 12000 FEET WITH NO
SIGNIFICANT WEATHER AND/OR OBSTRUCTIONS TO VISIBILITY.

COZ001>005-013-030-031-222300-
...NORTHWEST COLORADO...

CITY           SKY/WX    TMP DP  RH WIND       PRES   REMARKS
CRAIG          FAIR      89  29  11 N10G16    30.23F
HAYDEN         FAIR      84  34  16 NW7       30.26S
MEEKER         FAIR      88  31  13 CALM      30.24F
RABBIT EARS PA FAIR      66  39  37 NW7G21    30.59F
STEAMBOAT SPGS FAIR      83  33  16 NW7G17    30.28F
WALDEN         FAIR      77  34  20 NW17G25   30.40S
$$

COZ006>008-011-222300-
...WEST CENTRAL VALLEYS...

CITY           SKY/WX    TMP DP  RH WIND       PRES   REMARKS
GRAND JUNCTION FAIR      92  54  27 SW7       30.08F
MONTROSE       LGT RAIN  80  54  40 SE10      30.19F
EAGLE          MOSUNNY   84  48  28 VRB5      30.25F
RIFLE          FAIR      92  43  18 W10       30.13F
DELTA          FAIR      91  52  26 S9        30.13F
NUCLA          NOT AVBL
$$

COZ017>023-064>068-222300-
...SOUTHWEST COLORADO...

CITY           SKY/WX    TMP DP  RH WIND       PRES   REMARKS
DURANGO        FAIR      72  53  51 W10       30.25R THUNDER
CORTEZ         FAIR      86  52  30 N15G26    30.18S
PAGOSA SPRINGS LGT RAIN  64  48  57 N9        30.39R
TELLURIDE      LGT RAIN  61  50  65 CALM      30.49F
WOLF CREEK PAS NOT AVBL
$$

COZ009-010-012-014-032>034-037-058>063-222300-
...CENTRAL COLORADO...

CITY           SKY/WX    TMP DP  RH WIND       PRES   REMARKS
ASPEN          FAIR      80  43  26 NE7       30.32F
BUENA VISTA    CLOUDY    69  46  43 CALM      30.37S
COPPER MTN     PTSUNNY   59  41  51 E15G25    30.70R
BERTHOUD PASS  FAIR      48  34  57 CALM      30.75S THUNDER
COTTONWOOD PAS RAIN      64  46  52 E7        30.52S
GUNNISON       FAIR      73  50  44 S10       30.35F
KREMMLING      FAIR      90  32  12 NW12G17   30.31F
LEADVILLE      CLOUDY    61  39  44 E8G17     30.51R
MONARCH PASS   CLOUDY    55  41  58 W12       30.78S THUNDER
SALIDA         FAIR      82  43  24 E10G18    30.37F
SUNLIGHT       FAIR      64  37  36 NE3       30.63S
WILKERSON PASS DRIZZLE   50  43  76 NE10G17   30.68R
$$

COZ069>075-222300-
...SAN LUIS VALLEY/SANGRE DE CRISTO MOUNTAINS...

CITY           SKY/WX    TMP DP  RH WIND       PRES   REMARKS
ALAMOSA        TSTM      61  55  81 NE10      30.35R
DEL NORTE      FAIR      64  50  59 W17       30.38F
LA VETA PASS   NOT AVBL
SAGUACHE         N/A    N/A N/A N/A MISG        N/A
$$

COZ035-036-038>040-222300-
...NORTHERN COLORADO FRONT RANGE...

CITY           SKY/WX    TMP DP  RH WIND       PRES   REMARKS
DENVER INTL AP PTSUNNY   89  45  21 N5        30.15F
DMNS CITY PARK   N/A     86  44  22 SW6       30.15F
AURORA         PTSUNNY   85  50  29 N9        30.18F
FRONT RANGE AP FAIR      88  46  23 CALM      30.17F
ERIE MUNI ARPT FAIR      84  48  28 NW6       30.14F
BOULDER MUN AP FAIR      82  48  30 E3        30.15F
CENTENNIAL     PTSUNNY   83  47  28 VRB3      30.20F
BROOMFIELD     FAIR      86  45  23 NW6       30.19F
FORT COLLINS   FAIR      89  51  27 S10G17    30.14F
LONGMONT       FAIR      89  48  24 N3        30.15F
$$

COZ041-046-047-076>085-087-088-222300-
...PIKES PEAK/PALMER DIVIDE AND SOUTHERN FOOTHILLS...

CITY           SKY/WX    TMP DP  RH WIND       PRES   REMARKS
COLO. SPRINGS  FAIR      86  53  32 E9        30.23F
A. F. ACADEMY  FAIR      80  47  30 N10       30.24S
SCHRIEVER AFB  FAIR      81  50  33 NE3       30.23F
CHEYENNE MTN   FAIR      78  50  37 E3        30.24S
ELLICOTT       FAIR     N/A N/A N/A VRB3      30.22S
FALCON           N/A     82  47  29 NE8       30.29F
FORT CARSON    FAIR      83  54  36 CALM      30.19F
LIMON          FAIR      83  52  34 E7        30.17F
MONUMENT HILL  FAIR      77  50  38 CALM      30.31F
CANON CITY     SUNNY     88  55  33 E6        30.16F
WALSENBURG     CLOUDY    70  61  73 SW15      30.26R
TRINIDAD       FAIR      72  53  51 W24G33    30.21S
$$

COZ042>045-048>051-090-091-222300-
...NORTHEAST COLORADO...

CITY           SKY/WX    TMP DP  RH WIND       PRES   REMARKS
GREELEY ARPT   FAIR      91  55  29 VRB3      30.12F
AKRON          FAIR      84  45  25 SE18G24   30.15R
BURLINGTON     FAIR      81  53  37 NE20G26   30.12F
WRAY           NOT AVBL
YUMA           FAIR      81  45  28 SE14G21   30.12S
STERLING       FAIR      88  50  27 SE14      30.09F
HOLYOKE        FAIR      88  43  20 SE16      30.10S
FORT MORGAN    FAIR      91  48  23 SE9       30.11F
$$

COZ086-089-092>099-222300-
...SOUTHEAST COLORADO...

CITY           SKY/WX    TMP DP  RH WIND       PRES   REMARKS
PUEBLO         CLOUDY    90  52  27 SE8       30.10F
LA JUNTA       FAIR      89  54  30 NE12      30.07F
LAMAR          FAIR      89  60  37 N14       30.03F
SPRINGFIELD      N/A     91  56  30 NE12G17   30.06S
$$




USA.gov is the U.S. government's official web portal to all federal, state and local government web resources and services.